Location: Unspecified
(29.9680°N, 0.0000°E)
Time: 02:51:41
(UTC+00:00)

A-11 Canister half - Pass Details

Date: 18 June 2019
Orbit: 1526 x 1683 km, 47.3° (Epoch: 19 July)

Event Time Altitude Azimuth Distance (km) Brightness Sun altitude
Rises 14:38:08 0° 290° (WNW) 4,709 12.1 54.5°
Reaches altitude 10° 14:42:33 10° 272° (W) 3,746 11.9 53.5°
Maximum altitude 14:48:06 17° 236° (SW) 3,233 11.5 52.3°
Drops below altitude 10° 14:53:46 10° 199° (SSW) 3,810 11.4 51.1°
Sets 14:58:24 0° 181° (S) 4,824 11.6 50.1°
